owner,sensor,date,latitude,longitude,vertical_datum,wind_speed,wind_to_direction,wind_speed_of_gust,qcFlag 
TABS,ioos:station:TABS:X:1,2017-04-08T09:30:00Z,27.0660,-96.3383,4.0,8.066139101,173.2364426,9.29,'11111222,11111222,11111222' 
TABS,ioos:station:TABS:X:1,2017-04-08T10:00:00Z,27.0660,-96.3383,4.0,8.704372464,176.7071987,9.93,'11111222,11111222,11111222' 
TABS,ioos:station:TABS:X:1,2017-04-08T10:30:00Z,27.0660,-96.3383,4.0,8.045551566,172.1420503,9.35,'11111222,11111222,11111222' 
TABS,ioos:station:TABS:X:1,2017-04-08T11:00:00Z,27.0660,-96.3383,4.0,8.438726207,172.1677891,9.66,'11111222,11111222,11111222' 
TABS,ioos:station:TABS:X:1,2017-04-08T11:30:00Z,27.0660,-96.3383,4.0,8.146876702,169.1040838,9.4,'11111222,11111222,11111222' 
TABS,ioos:station:TABS:X:1,2017-04-08T12:00:00Z,27.0660,-96.3383,4.0,7.789249001,170.3927972,8.9,'11111222,11111222,11111222' 
TABS,ioos:station:TABS:X:1,2017-04-08T12:30:00Z,27.0660,-96.3383,4.0,7.398607977,174.96004,8.68,'11111222,11111222,11111222' 
TABS,ioos:station:TABS:X:1,2017-04-08T13:00:00Z,27.0660,-96.3383,4.0,7.577783317,166.8809453,8.67,'11111222,11111222,11111222' 
TABS,ioos:station:TABS:X:1,2017-04-08T13:30:00Z,27.0660,-96.3383,4.0,7.612207301,173.2859921,8.69,'11111222,11111222,11111222' 
TABS,ioos:station:TABS:X:1,2017-04-08T14:00:00Z,27.0660,-96.3383,4.0,7.516814485,172.3552151,8.91,'11111222,11111222,11111222' 
TABS,ioos:station:TABS:X:1,2017-04-08T14:30:00Z,27.0660,-96.3383,4.0,7.56616151,168.7200067,8.64,'11111222,11111222,11111222' 
TABS,ioos:station:TABS:X:1,2017-04-08T15:00:00Z,27.0660,-96.3383,4.0,7.652012807,165.8550383,8.83,'11111222,11111222,11111222' 
TABS,ioos:station:TABS:X:1,2017-04-08T15:30:00Z,27.0660,-96.3383,4.0,8.057077634,165.7742798,9.11,'11111222,11111222,11111222' 
TABS,ioos:station:TABS:X:1,2017-04-08T16:00:00Z,27.0660,-96.3383,4.0,8.013638375,163.9173583,9.08,'11111222,11111222,11111222' 
TABS,ioos:station:TABS:X:1,2017-04-08T16:30:00Z,27.0660,-96.3383,4.0,7.820594607,162.0518311,9.36,'11111222,11111222,11111222' 
TABS,ioos:station:TABS:X:1,2017-04-08T17:00:00Z,27.0660,-96.3383,4.0,7.636229436,166.9831287,9.29,'11111222,11111222,11111222' 
TABS,ioos:station:TABS:X:1,2017-04-08T17:30:00Z,27.0660,-96.3383,4.0,7.678079187,168.3537055,8.53,'11111222,11111222,11111222' 
TABS,ioos:station:TABS:X:1,2017-04-08T18:00:00Z,27.0660,-96.3383,4.0,7.93737992,161.793573,9.09,'11111222,11111222,11111222' 
TABS,ioos:station:TABS:X:1,2017-04-08T18:30:00Z,27.0660,-96.3383,4.0,7.634873935,163.4878929,8.64,'11111222,11111222,11111222' 
TABS,ioos:station:TABS:X:1,2017-04-08T19:00:00Z,27.0660,-96.3383,4.0,7.831481341,166.0349761,9.16,'11111222,11111222,11111222' 
TABS,ioos:station:TABS:X:1,2017-04-08T19:30:00Z,27.0660,-96.3383,4.0,7.81107547,163.2588503,9.0,'11111222,11111222,11111222' 
TABS,ioos:station:TABS:X:1,2017-04-08T20:00:00Z,27.0660,-96.3383,4.0,7.657218816,169.5414579,9.21,'11111222,11111222,11111222' 
TABS,ioos:station:TABS:X:1,2017-04-08T20:30:00Z,27.0660,-96.3383,4.0,7.888808529,163.6557941,9.15,'11111222,11111222,11111222' 
TABS,ioos:station:TABS:X:1,2017-04-08T21:00:00Z,27.0660,-96.3383,4.0,7.61120884,163.8273663,8.8,'11111222,11111222,11111222' 
TABS,ioos:station:TABS:X:1,2017-04-08T21:30:00Z,27.0660,-96.3383,4.0,8.440930044,160.7710735,9.43,'11111222,11111222,11111222' 
TABS,ioos:station:TABS:X:1,2017-04-08T22:00:00Z,27.0660,-96.3383,4.0,9.102098659,160.6894145,10.13,'11111222,11111222,11111222' 
TABS,ioos:station:TABS:X:1,2017-04-08T22:30:00Z,27.0660,-96.3383,4.0,9.141072147,159.1067525,10.65,'11111222,11111222,11111222' 
TABS,ioos:station:TABS:X:1,2017-04-08T23:00:00Z,27.0660,-96.3383,4.0,8.592444355,157.7035486,9.72,'11111222,11111222,11111222' 
TABS,ioos:station:TABS:X:1,2017-04-08T23:30:00Z,27.0660,-96.3383,4.0,9.280048491,155.285498,10.53,'11111222,11111222,11111222' 
TABS,ioos:station:TABS:X:1,2017-04-09T00:00:00Z,27.0660,-96.3383,4.0,8.238962313,162.5549583,9.87,'11111222,11111222,11111222' 
TABS,ioos:station:TABS:X:1,2017-04-09T00:30:00Z,27.0660,-96.3383,4.0,8.444228798,162.4236023,10.06,'11111222,11111222,11111222' 
TABS,ioos:station:TABS:X:1,2017-04-09T01:00:00Z,27.0660,-96.3383,4.0,8.35344839,159.0267661,9.66,'11111222,11111222,11111222' 
TABS,ioos:station:TABS:X:1,2017-04-09T01:30:00Z,27.0660,-96.3383,4.0,8.088887439,163.1110382,9.26,'11111222,11111222,11111222' 
TABS,ioos:station:TABS:X:1,2017-04-09T02:00:00Z,27.0660,-96.3383,4.0,8.405736137,162.1257409,9.8,'11111222,11111222,11111222' 
TABS,ioos:station:TABS:X:1,2017-04-09T02:30:00Z,27.0660,-96.3383,4.0,8.500899952,172.0893574,9.52,'11111222,11111222,11111222' 
TABS,ioos:station:TABS:X:1,2017-04-09T03:00:00Z,27.0660,-96.3383,4.0,8.684987047,167.8363675,10.69,'11111222,11111222,11111222' 
TABS,ioos:station:TABS:X:1,2017-04-09T03:30:00Z,27.0660,-96.3383,4.0,9.476507796,164.0133273,11.34,'11111222,11111222,11111222' 
TABS,ioos:station:TABS:X:1,2017-04-09T04:00:00Z,27.0660,-96.3383,4.0,9.313393581,165.8297134,11.18,'11111222,11111222,11111222' 
TABS,ioos:station:TABS:X:1,2017-04-09T04:30:00Z,27.0660,-96.3383,4.0,9.337976226,163.001277,10.8,'11111222,11111222,11111222' 
TABS,ioos:station:TABS:X:1,2017-04-09T05:00:00Z,27.0660,-96.3383,4.0,9.603051598,166.8177995,11.1,'11111222,11111222,11111222' 
TABS,ioos:station:TABS:X:1,2017-04-09T05:30:00Z,27.0660,-96.3383,4.0,9.07978524,170.6831462,10.56,'11111222,11111222,11111222' 
TABS,ioos:station:TABS:X:1,2017-04-09T06:00:00Z,27.0660,-96.3383,4.0,9.180501076,169.9633315,10.69,'11111222,11111222,11111222' 
TABS,ioos:station:TABS:X:1,2017-04-09T06:30:00Z,27.0660,-96.3383,4.0,9.151376946,171.8966898,10.48,'11111222,11111222,11111222' 
TABS,ioos:station:TABS:X:1,2017-04-09T07:00:00Z,27.0660,-96.3383,4.0,9.231337931,175.2778146,10.91,'11111222,11111222,11111222' 
TABS,ioos:station:TABS:X:1,2017-04-09T07:30:00Z,27.0660,-96.3383,4.0,9.695937294,173.8427525,11.21,'11111222,11111222,11111222' 
TABS,ioos:station:TABS:X:1,2017-04-09T08:00:00Z,27.0660,-96.3383,4.0,8.678813283,170.9177774,10.8,'11111222,11111222,11111222' 
TABS,ioos:station:TABS:X:1,2017-04-09T08:30:00Z,27.0660,-96.3383,4.0,8.848734373,171.8792842,9.87,'11111222,11111222,11111222' 
TABS,ioos:station:TABS:X:1,2017-04-09T09:00:00Z,27.0660,-96.3383,4.0,9.058835466,168.2809682,10.72,'11111222,11111222,11111222' 
TABS,ioos:station:TABS:X:1,2017-04-09T09:30:00Z,27.0660,-96.3383,4.0,8.862149852,173.7814073,10.23,'11111222,11111222,11111222' 
TABS,ioos:station:TABS:X:1,2017-04-09T10:00:00Z,27.0660,-96.3383,4.0,8.71959288,166.537734,9.89,'11111222,11111222,11111222' 
TABS,ioos:station:TABS:X:1,2017-04-09T10:30:00Z,27.0660,-96.3383,4.0,9.093470185,164.4356632,11.08,'11111222,11111222,11111222' 
TABS,ioos:station:TABS:X:1,2017-04-09T11:00:00Z,27.0660,-96.3383,4.0,9.289698596,164.0040203,10.76,'11111222,11111222,11111222' 
TABS,ioos:station:TABS:X:1,2017-04-09T11:30:00Z,27.0660,-96.3383,4.0,8.55423287,165.9964895,9.85,'11111222,11111222,11111222' 
TABS,ioos:station:TABS:X:1,2017-04-09T12:00:00Z,27.0660,-96.3383,4.0,8.760936023,162.5994099,10.14,'11111222,11111222,11111222' 
TABS,ioos:station:TABS:X:1,2017-04-09T12:30:00Z,27.0660,-96.3383,4.0,7.853387804,165.6985803,9.67,'11111222,11111222,11111222' 
TABS,ioos:station:TABS:X:1,2017-04-09T13:00:00Z,27.0660,-96.3383,4.0,7.768461881,165.7672313,9.07,'11111222,11111222,11111222' 
TABS,ioos:station:TABS:X:1,2017-04-09T13:30:00Z,27.0660,-96.3383,4.0,8.074781731,166.7556586,9.13,'11111222,11111222,11111222' 
TABS,ioos:station:TABS:X:1,2017-04-09T14:00:00Z,27.0660,-96.3383,4.0,7.667678919,170.8450239,9.95,'11111222,11111222,11111222' 
TABS,ioos:station:TABS:X:1,2017-04-09T14:30:00Z,27.0660,-96.3383,4.0,8.410683682,170.6947003,9.86,'11111222,11111222,11111222' 
TABS,ioos:station:TABS:X:1,2017-04-09T15:00:00Z,27.0660,-96.3383,4.0,8.589901047,168.585655,9.76,'11111222,11111222,11111222' 
TABS,ioos:station:TABS:X:1,2017-04-09T15:30:00Z,27.0660,-96.3383,4.0,7.877563075,165.8934387,9.33,'11111222,11111222,11111222' 
TABS,ioos:station:TABS:X:1,2017-04-09T16:00:00Z,27.0660,-96.3383,4.0,8.127238153,169.0774313,9.56,'11111222,11111222,11111222' 
TABS,ioos:station:TABS:X:1,2017-04-09T16:30:00Z,27.0660,-96.3383,4.0,8.030765841,167.486909,9.21,'11111222,11111222,11111222' 
TABS,ioos:station:TABS:X:1,2017-04-09T17:00:00Z,27.0660,-96.3383,4.0,8.343410574,157.892802,9.66,'11111222,11111222,11111222' 
TABS,ioos:station:TABS:X:1,2017-04-09T17:30:00Z,27.0660,-96.3383,4.0,8.718910482,158.8212083,10.65,'11111222,11111222,11111222' 
TABS,ioos:station:TABS:X:1,2017-04-09T18:00:00Z,27.0660,-96.3383,4.0,8.983596162,160.153374,10.84,'11111222,11111222,11111222' 
TABS,ioos:station:TABS:X:1,2017-04-09T18:30:00Z,27.0660,-96.3383,4.0,8.546958523,157.2153858,10.42,'11111222,11111222,11111222' 
TABS,ioos:station:TABS:X:1,2017-04-09T19:00:00Z,27.0660,-96.3383,4.0,8.919915919,154.7854706,10.34,'11111222,11111222,11111222' 
TABS,ioos:station:TABS:X:1,2017-04-09T19:30:00Z,27.0660,-96.3383,4.0,8.548362416,155.6838951,9.72,'11111222,11111222,11111222' 
TABS,ioos:station:TABS:X:1,2017-04-09T20:00:00Z,27.0660,-96.3383,4.0,8.834625063,156.3077584,10.31,'11111222,11111222,11111222' 
TABS,ioos:station:TABS:X:1,2017-04-09T20:30:00Z,27.0660,-96.3383,4.0,9.004354502,155.598442,10.41,'11111222,11111222,11111222' 
TABS,ioos:station:TABS:X:1,2017-04-09T21:00:00Z,27.0660,-96.3383,4.0,9.104833881,156.9834596,11.07,'11111222,11111222,11111222' 
TABS,ioos:station:TABS:X:1,2017-04-09T21:30:00Z,27.0660,-96.3383,4.0,9.436630755,155.9884591,10.83,'11111222,11111222,11111222' 
TABS,ioos:station:TABS:X:1,2017-04-09T22:00:00Z,27.0660,-96.3383,4.0,8.414618233,157.4275381,9.7,'11111222,11111222,11111222' 
TABS,ioos:station:TABS:X:1,2017-04-09T22:30:00Z,27.0660,-96.3383,4.0,8.08159019,155.4330966,9.74,'11111222,11111222,11111222' 
TABS,ioos:station:TABS:X:1,2017-04-09T23:00:00Z,27.0660,-96.3383,4.0,7.846999427,157.1276499,9.59,'11111222,11111222,11111222' 
TABS,ioos:station:TABS:X:1,2017-04-09T23:30:00Z,27.0660,-96.3383,4.0,8.738884368,153.9336868,10.66,'11111222,11111222,11111222' 
TABS,ioos:station:TABS:X:1,2017-04-10T00:00:00Z,27.0660,-96.3383,4.0,8.918318227,152.6307216,10.15,'11111222,11111222,11111222' 
TABS,ioos:station:TABS:X:1,2017-04-10T00:30:00Z,27.0660,-96.3383,4.0,8.930985388,150.8522068,10.41,'11111222,11111222,11111222' 
TABS,ioos:station:TABS:X:1,2017-04-10T01:00:00Z,27.0660,-96.3383,4.0,8.963314119,151.4051224,10.68,'11111222,11111222,11111222' 
TABS,ioos:station:TABS:X:1,2017-04-10T01:30:00Z,27.0660,-96.3383,4.0,8.948457968,150.9145793,10.08,'11111222,11111222,11111222' 
TABS,ioos:station:TABS:X:1,2017-04-10T02:00:00Z,27.0660,-96.3383,4.0,9.155724985,152.483647,10.5,'11111222,11111222,11111222' 
TABS,ioos:station:TABS:X:1,2017-04-10T02:30:00Z,27.0660,-96.3383,4.0,7.65,151.9277892,9.25,'11111222,11111222,11111222' 
TABS,ioos:station:TABS:X:1,2017-04-10T03:00:00Z,27.0660,-96.3383,4.0,7.749787094,155.2870914,9.23,'11111222,11111222,11111222' 
TABS,ioos:station:TABS:X:1,2017-04-10T03:30:00Z,27.0660,-96.3383,4.0,7.90474541,156.5161501,9.67,'11111222,11111222,11111222' 
TABS,ioos:station:TABS:X:1,2017-04-10T04:00:00Z,27.0660,-96.3383,4.0,7.531825808,158.3401131,8.79,'11111222,11111222,11111222' 
TABS,ioos:station:TABS:X:1,2017-04-10T04:30:00Z,27.0660,-96.3383,4.0,8.430895563,157.6940576,10.09,'11111222,11111222,11111222' 
TABS,ioos:station:TABS:X:1,2017-04-10T05:00:00Z,27.0660,-96.3383,4.0,8.172539385,156.9489634,9.32,'11111222,11111222,11111222' 
TABS,ioos:station:TABS:X:1,2017-04-10T05:30:00Z,27.0660,-96.3383,4.0,8.100222219,157.8048028,9.53,'11111222,11111222,11111222' 
TABS,ioos:station:TABS:X:1,2017-04-10T06:00:00Z,27.0660,-96.3383,4.0,8.046346997,152.5435324,9.34,'11111222,11111222,11111222' 
TABS,ioos:station:TABS:X:1,2017-04-10T06:30:00Z,27.0660,-96.3383,4.0,8.028262577,154.2331593,9.73,'11111222,11111222,11111222' 
TABS,ioos:station:TABS:X:1,2017-04-10T07:00:00Z,27.0660,-96.3383,4.0,8.086068266,154.0373106,9.44,'11111222,11111222,11111222' 
TABS,ioos:station:TABS:X:1,2017-04-10T07:30:00Z,27.0660,-96.3383,4.0,8.955540185,155.6675047,10.39,'11111222,11111222,11111222' 
TABS,ioos:station:TABS:X:1,2017-04-10T08:00:00Z,27.0660,-96.3383,4.0,8.811044206,159.8171473,10.26,'11111222,11111222,11111222' 
TABS,ioos:station:TABS:X:1,2017-04-10T08:30:00Z,27.0660,-96.3383,4.0,8.354400038,159.3960522,10.4,'11111222,11111222,11111222' 
TABS,ioos:station:TABS:X:1,2017-04-10T09:00:00Z,27.0660,-96.3383,4.0,8.709041279,159.3595135,10.03,'11111222,11111222,11111222' 
TABS,ioos:station:TABS:X:1,2017-04-10T09:30:00Z,27.0660,-96.3383,4.0,8.305203188,162.4816078,10.33,'11111222,11111222,11111222' 
TABS,ioos:station:TABS:X:1,2017-04-10T10:00:00Z,27.0660,-96.3383,4.0,7.368561596,163.3605874,8.66,'11111222,11111222,11111222' 
TABS,ioos:station:TABS:X:1,2017-04-10T10:30:00Z,27.0660,-96.3383,4.0,7.655984587,161.2576483,8.79,'11111222,11111222,11111222' 
TABS,ioos:station:TABS:X:1,2017-04-10T11:00:00Z,27.0660,-96.3383,4.0,7.387259302,163.9696222,8.46,'11111222,11111222,11111222' 
TABS,ioos:station:TABS:X:1,2017-04-10T11:30:00Z,27.0660,-96.3383,4.0,8.088572185,166.0499003,9.16,'11111222,11111222,11111222' 
TABS,ioos:station:TABS:X:1,2017-04-10T12:00:00Z,27.0660,-96.3383,4.0,7.91260387,157.8761388,9.02,'11111222,11111222,11111222' 
TABS,ioos:station:TABS:X:1,2017-04-10T12:30:00Z,27.0660,-96.3383,4.0,8.996088039,162.9349819,10.32,'11111222,11111222,11111222' 
TABS,ioos:station:TABS:X:1,2017-04-10T13:00:00Z,27.0660,-96.3383,4.0,8.124733842,160.7401618,10.0,'11111222,11111222,11111222' 
TABS,ioos:station:TABS:X:1,2017-04-10T13:30:00Z,27.0660,-96.3383,4.0,8.638362113,167.0901382,10.02,'11111222,11111222,11111222' 
TABS,ioos:station:TABS:X:1,2017-04-10T14:00:00Z,27.0660,-96.3383,4.0,9.124872602,163.9686023,10.77,'11111222,11111222,11111222' 
TABS,ioos:station:TABS:X:1,2017-04-10T14:30:00Z,27.0660,-96.3383,4.0,9.285951755,167.056496,11.07,'11111222,11111222,11111222' 
TABS,ioos:station:TABS:X:1,2017-04-10T15:00:00Z,27.0660,-96.3383,4.0,8.7534279,167.9329112,10.21,'11111222,11111222,11111222' 
TABS,ioos:station:TABS:X:1,2017-04-10T15:30:00Z,27.0660,-96.3383,4.0,7.960263815,164.4799886,9.44,'11111222,11111222,11111222' 
TABS,ioos:station:TABS:X:1,2017-04-10T16:00:00Z,27.0660,-96.3383,4.0,7.703973001,162.3179136,9.2,'11111222,11111222,11111222' 
TABS,ioos:station:TABS:X:1,2017-04-10T16:30:00Z,27.0660,-96.3383,4.0,8.035353135,161.4976594,9.57,'11111222,11111222,11111222' 
TABS,ioos:station:TABS:X:1,2017-04-10T17:00:00Z,27.0660,-96.3383,4.0,7.996030265,163.5824023,9.35,'11111222,11111222,11111222' 
TABS,ioos:station:TABS:X:1,2017-04-10T17:30:00Z,27.0660,-96.3383,4.0,7.640582439,159.7865086,9.01,'11111222,11111222,11111222' 
TABS,ioos:station:TABS:X:1,2017-04-10T18:00:00Z,27.0660,-96.3383,4.0,6.721733407,156.4099343,8.04,'11111222,11111222,11111222' 
TABS,ioos:station:TABS:X:1,2017-04-10T18:30:00Z,27.0660,-96.3383,4.0,6.833476421,153.2102397,7.9,'11111222,11111222,11111222' 
TABS,ioos:station:TABS:X:1,2017-04-10T19:00:00Z,27.0660,-96.3383,4.0,6.736660894,148.5989408,8.02,'11111222,11111222,11111222' 
TABS,ioos:station:TABS:X:1,2017-04-10T19:30:00Z,27.0660,-96.3383,4.0,6.709813708,148.1578277,8.35,'11111222,11111222,11111222' 
TABS,ioos:station:TABS:X:1,2017-04-10T20:00:00Z,27.0660,-96.3383,4.0,6.441622466,145.0519925,7.49,'11111222,11111222,11111222' 
TABS,ioos:station:TABS:X:1,2017-04-10T20:30:00Z,27.0660,-96.3383,4.0,6.576602466,140.9867363,7.79,'11111222,11111222,11111222' 
TABS,ioos:station:TABS:X:1,2017-04-10T21:00:00Z,27.0660,-96.3383,4.0,6.65,143.130399,7.85,'11111222,11111222,11111222' 
TABS,ioos:station:TABS:X:1,2017-04-10T21:30:00Z,27.0660,-96.3383,4.0,6.830768624,140.2269512,8.39,'11111222,11111222,11111222' 
TABS,ioos:station:TABS:X:1,2017-04-10T22:00:00Z,27.0660,-96.3383,4.0,7.816527362,141.1802255,9.11,'11111222,11111222,11111222' 
TABS,ioos:station:TABS:X:1,2017-04-10T22:30:00Z,27.0660,-96.3383,4.0,8.244422357,141.2536646,9.89,'11111222,11111222,11111222' 
TABS,ioos:station:TABS:X:1,2017-04-10T23:00:00Z,27.0660,-96.3383,4.0,8.214773277,141.1771024,9.85,'11111222,11111222,11111222' 
TABS,ioos:station:TABS:X:1,2017-04-10T23:30:00Z,27.0660,-96.3383,4.0,8.493432757,142.0779832,9.89,'11111222,11111222,11111222' 
TABS,ioos:station:TABS:X:1,2017-04-11T00:00:00Z,27.0660,-96.3383,4.0,9.535853397,144.2600598,11.49,'11111222,11111222,11111222' 
TABS,ioos:station:TABS:X:1,2017-04-11T00:30:00Z,27.0660,-96.3383,4.0,9.314805419,145.3206991,11.33,'11111222,11111222,11111222' 
TABS,ioos:station:TABS:X:1,2017-04-11T01:00:00Z,27.0660,-96.3383,4.0,9.484914338,148.1869967,11.64,'11111222,11111222,11111222' 
TABS,ioos:station:TABS:X:1,2017-04-11T01:30:00Z,27.0660,-96.3383,4.0,9.892320254,147.4669032,11.26,'11111222,11111222,11111222' 
TABS,ioos:station:TABS:X:1,2017-04-11T02:00:00Z,27.0660,-96.3383,4.0,9.873180845,148.96686,12.73,'11111222,11111222,11111222' 
TABS,ioos:station:TABS:X:1,2017-04-11T02:30:00Z,27.0660,-96.3383,4.0,8.648959475,148.5707183,9.93,'11111222,11111222,11111222' 
TABS,ioos:station:TABS:X:1,2017-04-11T03:00:00Z,27.0660,-96.3383,4.0,8.529038633,152.7141816,10.39,'11111222,11111222,11111222' 
TABS,ioos:station:TABS:X:1,2017-04-11T03:30:00Z,27.0660,-96.3383,4.0,8.980139197,151.6087744,10.9,'11111222,11111222,11111222' 
TABS,ioos:station:TABS:X:1,2017-04-11T04:00:00Z,27.0660,-96.3383,4.0,7.832496409,151.1446167,9.32,'11111222,11111222,11111222' 
TABS,ioos:station:TABS:X:1,2017-04-11T04:30:00Z,27.0660,-96.3383,4.0,7.614118465,151.9543477,9.2,'11111222,11111222,11111222' 
TABS,ioos:station:TABS:X:1,2017-04-11T05:00:00Z,27.0660,-96.3383,4.0,6.915562161,155.8442971,8.19,'11111222,11111222,11111222' 
TABS,ioos:station:TABS:X:1,2017-04-11T05:30:00Z,27.0660,-96.3383,4.0,6.890029028,155.1089685,8.24,'11111222,11111222,11111222' 
TABS,ioos:station:TABS:X:1,2017-04-11T06:00:00Z,27.0660,-96.3383,4.0,6.898470845,154.9582876,8.23,'11111222,11111222,11111222' 
TABS,ioos:station:TABS:X:1,2017-04-11T06:30:00Z,27.0660,-96.3383,4.0,5.876878423,155.790303,6.72,'11111222,11111222,11111222' 
TABS,ioos:station:TABS:X:1,2017-04-11T07:00:00Z,27.0660,-96.3383,4.0,5.087808959,151.4707056,5.85,'11111222,11111222,11111222' 
TABS,ioos:station:TABS:X:1,2017-04-11T07:30:00Z,27.0660,-96.3383,4.0,5.414794548,147.3667839,6.35,'11111222,11111222,11111222' 
TABS,ioos:station:TABS:X:1,2017-04-11T08:00:00Z,27.0660,-96.3383,4.0,5.432053019,126.6170868,6.67,'11111222,11111222,11111222' 
TABS,ioos:station:TABS:X:1,2017-04-11T08:30:00Z,27.0660,-96.3383,4.0,6.866644013,132.2852367,8.01,'11111222,11111222,11111222' 
TABS,ioos:station:TABS:X:1,2017-04-11T09:00:00Z,27.0660,-96.3383,4.0,6.226660421,128.545174,7.52,'11111222,11111222,11111222' 
TABS,ioos:station:TABS:X:1,2017-04-11T09:30:00Z,27.0660,-96.3383,4.0,5.73566038,125.491566,7.09,'11111222,11111222,11111222' 
TABS,ioos:station:TABS:X:1,2017-04-11T10:00:00Z,27.0660,-96.3383,4.0,6.247599539,130.6513564,7.17,'11111222,11111222,11111222' 
TABS,ioos:station:TABS:X:1,2017-04-11T10:30:00Z,27.0660,-96.3383,4.0,5.89291948,130.6648957,7.36,'11111222,11111222,11111222' 
TABS,ioos:station:TABS:X:1,2017-04-11T11:00:00Z,27.0660,-96.3383,4.0,7.36854124,134.3405102,8.28,'11111222,11111222,11111222' 
TABS,ioos:station:TABS:X:1,2017-04-11T11:30:00Z,27.0660,-96.3383,4.0,7.710415034,142.535913,9.66,'11111222,11111222,11111222' 
TABS,ioos:station:TABS:X:1,2017-04-11T12:00:00Z,27.0660,-96.3383,4.0,9.304069002,145.19998,10.7,'11111222,11111222,11111222' 
TABS,ioos:station:TABS:X:1,2017-04-11T12:30:00Z,27.0660,-96.3383,4.0,10.14148411,149.743844,12.39,'11111222,11111222,11111222' 
TABS,ioos:station:TABS:X:1,2017-04-11T13:00:00Z,27.0660,-96.3383,4.0,10.75863374,146.6794847,12.23,'11111222,11111222,11111222' 
TABS,ioos:station:TABS:X:1,2017-04-11T13:30:00Z,27.0660,-96.3383,4.0,12.49573127,144.0841683,14.75,'11111222,11111222,11111222' 
TABS,ioos:station:TABS:X:1,2017-04-11T14:00:00Z,27.0660,-96.3383,4.0,8.609970964,139.4278823,10.67,'11111222,11111222,11111222' 
TABS,ioos:station:TABS:X:1,2017-04-11T14:30:00Z,27.0660,-96.3383,4.0,7.929905422,139.5008905,9.43,'11111222,11111222,11111222' 
TABS,ioos:station:TABS:X:1,2017-04-11T15:00:00Z,27.0660,-96.3383,4.0,7.848012487,143.0281898,9.07,'11111222,11111222,11111222' 
TABS,ioos:station:TABS:X:1,2017-04-11T15:30:00Z,27.0660,-96.3383,4.0,7.518630194,149.3763232,9.11,'11111222,11111222,11111222' 
TABS,ioos:station:TABS:X:1,2017-04-11T16:00:00Z,27.0660,-96.3383,4.0,7.965437841,156.2349702,10.22,'11111222,11111222,11111222' 
TABS,ioos:station:TABS:X:1,2017-04-11T16:30:00Z,27.0660,-96.3383,4.0,7.105413429,156.1769636,8.5,'11111222,11111222,11111222' 
TABS,ioos:station:TABS:X:1,2017-04-11T17:00:00Z,27.0660,-96.3383,4.0,8.234864905,161.0812517,9.35,'11111222,11111222,11111222' 
TABS,ioos:station:TABS:X:1,2017-04-11T17:30:00Z,27.0660,-96.3383,4.0,7.044693038,156.491971,8.2,'11111222,11111222,11111222' 
TABS,ioos:station:TABS:X:1,2017-04-11T18:00:00Z,27.0660,-96.3383,4.0,7.510845492,157.1222059,8.77,'11111222,11111222,11111222' 
TABS,ioos:station:TABS:X:1,2017-04-11T18:30:00Z,27.0660,-96.3383,4.0,6.706713055,163.1864469,7.64,'11111222,11111222,11111222' 
TABS,ioos:station:TABS:X:1,2017-04-11T19:00:00Z,27.0660,-96.3383,4.0,5.938829851,172.6478483,7.21,'11111222,11111222,11111222' 
TABS,ioos:station:TABS:X:1,2017-04-11T19:30:00Z,27.0660,-96.3383,4.0,4.950686821,166.8061094,5.73,'11111222,11111222,11111222' 
TABS,ioos:station:TABS:X:1,2017-04-11T20:00:00Z,27.0660,-96.3383,4.0,4.319120281,172.2828587,5.2,'11111222,11111222,11111222' 
TABS,ioos:station:TABS:X:1,2017-04-11T20:30:00Z,27.0660,-96.3383,4.0,3.841874542,165.5299502,4.56,'11111222,11111222,11111222' 
TABS,ioos:station:TABS:X:1,2017-04-11T21:00:00Z,27.0660,-96.3383,4.0,3.677730278,161.6145701,4.34,'11111222,11111222,11111222' 
TABS,ioos:station:TABS:X:1,2017-04-11T21:30:00Z,27.0660,-96.3383,4.0,4.062634613,156.6535281,5.05,'11111222,11111222,11111222' 
TABS,ioos:station:TABS:X:1,2017-04-11T22:00:00Z,27.0660,-96.3383,4.0,3.322664593,146.1667438,3.84,'11111222,11111222,11111222' 
TABS,ioos:station:TABS:X:1,2017-04-11T22:30:00Z,27.0660,-96.3383,4.0,3.404071092,127.2405281,4.05,'11111222,11111222,11111222' 
TABS,ioos:station:TABS:X:1,2017-04-11T23:00:00Z,27.0660,-96.3383,4.0,3.054586715,117.0687263,3.55,'11111222,11111222,11111222' 
TABS,ioos:station:TABS:X:1,2017-04-11T23:30:00Z,27.0660,-96.3383,4.0,3.672832694,97.66720725,4.26,'11111222,11111222,11111222' 
TABS,ioos:station:TABS:X:1,2017-04-12T00:00:00Z,27.0660,-96.3383,4.0,10.90647973,50.61785781,16.76,'11111222,11111222,11111222' 
TABS,ioos:station:TABS:X:1,2017-04-12T00:30:00Z,27.0660,-96.3383,4.0,12.85227606,76.36342589,17.08,'11111222,11111222,11111222' 
TABS,ioos:station:TABS:X:1,2017-04-12T01:00:00Z,27.0660,-96.3383,4.0,12.38283489,78.87116008,15.39,'11111222,11111222,11111222' 
TABS,ioos:station:TABS:X:1,2017-04-12T01:30:00Z,27.0660,-96.3383,4.0,11.90745145,80.67175701,15.09,'11111222,11111222,11111222' 
TABS,ioos:station:TABS:X:1,2017-04-12T02:00:00Z,27.0660,-96.3383,4.0,10.0060032,79.86889151,13.69,'11111222,11111222,11111222' 
TABS,ioos:station:TABS:X:1,2017-04-12T02:30:00Z,27.0660,-96.3383,4.0,9.915165152,74.61779205,12.17,'11111222,11111222,11111222' 
TABS,ioos:station:TABS:X:1,2017-04-12T03:00:00Z,27.0660,-96.3383,4.0,9.611992509,92.86281945,12.41,'11111222,11111222,11111222' 
TABS,ioos:station:TABS:X:1,2017-04-12T03:30:00Z,27.0660,-96.3383,4.0,8.753170854,102.6711957,10.75,'11111222,11111222,11111222' 
TABS,ioos:station:TABS:X:1,2017-04-12T04:00:00Z,27.0660,-96.3383,4.0,9.438161897,125.6438702,11.24,'11111222,11111222,11111222' 
TABS,ioos:station:TABS:X:1,2017-04-12T04:30:00Z,27.0660,-96.3383,4.0,9.892729654,135.4508083,11.89,'11111222,11111222,11111222' 
TABS,ioos:station:TABS:X:1,2017-04-12T05:00:00Z,27.0660,-96.3383,4.0,8.576246265,145.6431615,10.26,'11111222,11111222,11111222' 
TABS,ioos:station:TABS:X:1,2017-04-12T05:30:00Z,27.0660,-96.3383,4.0,9.041443469,159.3403767,10.41,'11111222,11111222,11111222' 
TABS,ioos:station:TABS:X:1,2017-04-12T06:00:00Z,27.0660,-96.3383,4.0,8.897696331,157.3259113,10.58,'11111222,11111222,11111222' 